EW5196 Weather Reports


time (UTC)temp
C
wind
direction
speed
KPH
gust
KPH
rain 1hr
cm
rain 24hr
cm
rain mn
cm
humidity
%
barometer
mb
20260509093627 10 139 3.2 3.2 0.00 0.00 0.00 89 1014.3
20260509093124 10 143 3.2 3.2 0.00 0.00 0.00 89 1014.5
20260509092622 10 152 3.2 3.2 0.00 0.00 0.00 88 1014.4
20260509092120 10 151 3.2 3.2 0.00 0.00 0.00 87 1014.7
20260509091618 10 159 3.2 3.2 0.00 0.00 0.00 87 1014.5
20260509091113 11 143 3.2 4.8 0.00 0.00 0.00 86 1014.5
20260509090611 11 141 3.2 3.2 0.00 0.00 0.00 85 1014.5
20260509090109 11 147 1.6 3.2 0.00 0.00 0.00 82 1014.6
20260509085606 11 155 3.2 3.2 0.00 0.00 0.00 81 1014.8
20260509085102 11 150 3.2 3.2 0.00 0.00 0.00 80 1014.5
20260509084559 11 154 3.2 3.2 0.00 0.00 0.00 80 1014.5
20260509084056 11 154 3.2 3.2 0.00 0.00 0.00 80 1014.3
20260509083554 11 175 3.2 3.2 0.00 0.00 0.00 81 1014.3
20260509083050 11 158 3.2 3.2 0.00 0.00 0.00 83 1014.3
20260509082548 11 160 3.2 4.8 0.00 0.00 0.00 82 1014.3
20260509082044 11 145 3.2 3.2 0.00 0.00 0.00 80 1014.2
20260509081542 11 159 3.2 3.2 0.00 0.00 0.00 79 1014.3
20260509081038 11 158 3.2 4.8 0.00 0.00 0.00 79 1014.3
20260509080536 11 114 1.6 3.2 0.00 0.00 0.00 80 1014.2
20260509080034 11 151 3.2 3.2 0.00 0.00 0.00 81 1014.2
20260509075531 11 122 1.6 3.2 0.00 0.00 0.00 81 1014.4
20260509075029 11 153 3.2 3.2 0.00 0.00 0.00 79 1014.3
20260509074526 11 148 3.2 3.2 0.00 0.00 0.00 79 1014.5
20260509074023 11 169 3.2 4.8 0.00 0.00 0.00 78 1014.6
20260509073519 11 143 3.2 3.2 0.00 0.00 0.00 79 1014.6
20260509073016 11 218 4.8 4.8 0.00 0.00 0.00 79 1014.6
20260509072512 11 151 3.2 3.2 0.00 0.00 0.00 80 1014.6
20260509072009 11 154 3.2 4.8 0.00 0.00 0.00 80 1014.6
20260509071506 10 157 3.2 3.2 0.00 0.00 0.00 83 1014.9
20260509071003 10 153 3.2 4.8 0.00 0.00 0.00 84 1014.6
20260509070500 10 146 3.2 4.8 0.00 0.00 0.00 85 1014.8
20260509065956 10 146 4.8 4.8 0.00 0.00 0.00 86 1014.8
20260509065452 10 168 1.6 4.8 0.00 0.00 0.00 87 1015.1
20260509064948 10 137 1.6 3.2 0.00 0.00 0.00 87 1015.1
20260509064446 10 167 3.2 4.8 0.00 0.00 0.00 87 1015.4
20260509063944 10 148 3.2 4.8 0.00 0.00 0.00 87 1015.1
20260509063445 10 139 3.2 4.8 0.00 0.00 0.00 86 1015.5
20260509062942 10 147 3.2 3.2 0.00 0.00 0.00 86 1015.4
20260509062439 10 158 3.2 4.8 0.00 0.00 0.00 85 1015.5
20260509061937 10 146 3.2 4.8 0.00 0.00 0.00 85 1015.7
20260509061434 10 154 3.2 3.2 0.00 0.00 0.00 84 1015.8
20260509060931 10 143 3.2 3.2 0.00 0.00 0.00 83 1015.9
20260509060428 10 151 3.2 3.2 0.00 0.00 0.00 82 1015.9
20260509055923 10 147 3.2 3.2 0.00 0.00 0.00 82 1015.8
20260509055419 10 149 3.2 3.2 0.00 0.00 0.00 83 1016.0
20260509054916 10 147 3.2 3.2 0.00 0.00 0.00 82 1015.7
20260509054413 10 149 3.2 4.8 0.00 0.00 0.00 82 1015.7
20260509053911 10 153 1.6 3.2 0.00 0.00 0.00 81 1015.8
20260509053408 10 136 3.2 4.8 0.00 0.00 0.00 81 1015.8
20260509052906 11 154 3.2 4.8 0.00 0.00 0.00 81 1015.7
20260509052403 11 160 3.2 4.8 0.00 0.00 0.00 81 1015.4
20260509051901 11 150 3.2 3.2 0.00 0.00 0.00 79 1015.6
20260509051359 11 155 3.2 3.2 0.00 0.00 0.00 79 1015.2
20260509050855 11 166 3.2 3.2 0.00 0.00 0.00 78 1015.4
20260509050352 11 161 3.2 3.2 0.00 0.00 0.00 78 1015.2
20260509045849 11 156 3.2 3.2 0.00 0.00 0.00 77 1015.3
20260509045346 11 147 3.2 4.8 0.00 0.00 0.00 76 1015.4
20260509044843 12 151 3.2 4.8 0.00 0.00 0.00 76 1015.1
20260509044341 12 157 3.2 3.2 0.00 0.00 0.00 72 1015.2
20260509043837 12 150 3.2 3.2 0.00 0.00 0.00 71 1015.3
20260509043333 12 156 3.2 3.2 0.00 0.00 0.00 73 1015.3
20260509042829 12 148 3.2 3.2 0.00 0.00 0.00 67 1015.1
20260509042325 12 139 1.6 3.2 0.00 0.00 0.00 69 1015.4
20260509041822 12 152 3.2 3.2 0.00 0.00 0.00 70 1015.3
20260509041319 13 152 3.2 3.2 0.00 0.00 0.00 74 1015.4
20260509040818 13 143 3.2 3.2 0.00 0.00 0.00 71 1015.5
20260509040315 13 144 3.2 3.2 0.00 0.00 0.00 68 1015.4
20260509035812 13 152 3.2 3.2 0.00 0.00 0.00 68 1015.3
20260509035309 13 149 3.2 3.2 0.00 0.00 0.00 67 1015.3
20260509034805 13 152 3.2 3.2 0.00 0.00 0.00 65 1015.6
20260509034303 13 157 1.6 3.2 0.00 0.00 0.00 65 1015.5
20260509033759 13 146 3.2 3.2 0.00 0.00 0.00 67 1015.7
20260509033257 13 149 3.2 3.2 0.00 0.00 0.00 69 1015.7
20260509032754 13 138 1.6 3.2 0.00 0.00 0.00 73 1015.6
20260509032250 13 145 3.2 3.2 0.00 0.00 0.00 66 1015.8
20260509031748 13 146 3.2 3.2 0.00 0.00 0.00 69 1016.1
20260509031245 13 144 1.6 3.2 0.00 0.00 0.00 70 1015.7
20260509030743 13 162 3.2 3.2 0.00 0.00 0.00 66 1015.7
20260509030241 13 157 3.2 3.2 0.00 0.00 0.00 66 1015.9
20260509025737 13 161 3.2 3.2 0.00 0.00 0.00 63 1015.5
20260509025233 13 160 1.6 3.2 0.00 0.00 0.00 70 1015.5
20260509024728 13 161 1.6 3.2 0.00 0.00 0.00 70 1015.9
20260509024224 13 148 3.2 3.2 0.00 0.00 0.00 70 1015.6
20260509023722 13 139 1.6 3.2 0.00 0.00 0.00 71 1015.8
20260509023219 13 154 3.2 3.2 0.00 0.00 0.00 70 1015.8
20260509022715 13 160 3.2 3.2 0.00 0.00 0.00 68 1015.8
20260509022213 13 148 3.2 3.2 0.00 0.00 0.00 61 1015.8
20260509021710 13 161 3.2 3.2 0.00 0.00 0.00 60 1015.7
20260509021207 13 150 3.2 3.2 0.00 0.00 0.00 63 1015.7
20260509020705 13 144 3.2 3.2 0.00 0.00 0.00 68 1015.8
20260509020202 13 154 3.2 3.2 0.00 0.00 0.00 72 1015.7
20260509015700 13 144 3.2 3.2 0.00 0.00 0.00 69 1015.4
20260509015158 13 159 1.6 3.2 0.00 0.00 0.00 65 1015.3
20260509014654 14 149 3.2 3.2 0.00 0.00 0.00 68 1015.4
20260509014150 14 149 3.2 3.2 0.00 0.00 0.00 70 1015.7
20260509013648 14 139 3.2 3.2 0.00 0.00 0.00 61 1015.6
20260509013143 14 146 3.2 4.8 0.00 0.00 0.00 57 1015.5
20260509012640 14 150 3.2 3.2 0.00 0.00 0.00 64 1015.5
20260509012137 15 144 3.2 4.8 0.00 0.00 0.00 61 1015.5
20260509011635 15 144 3.2 3.2 0.00 0.00 0.00 61 1015.2
20260509011132 15 137 3.2 3.2 0.00 0.00 0.00 63 1015.2
20260509010630 15 136 3.2 3.2 0.00 0.00 0.00 64 1015.1
20260509010126 15 140 3.2 3.2 0.00 0.00 0.00 59 1015.1
20260509005624 15 149 3.2 3.2 0.00 0.00 0.00 65 1015.1
20260509005120 15 136 1.6 4.8 0.00 0.00 0.00 62 1015.0
20260509004616 15 145 3.2 3.2 0.00 0.00 0.00 56 1015.0
20260509004113 16 161 3.2 3.2 0.00 0.00 0.00 55 1015.3
20260509003611 16 147 3.2 3.2 0.00 0.00 0.00 66 1015.1
20260509003108 16 151 3.2 3.2 0.00 0.00 0.00 59 1015.1
20260509002606 16 133 1.6 3.2 0.00 0.00 0.00 50 1015.1
20260509002103 17 156 3.2 3.2 0.00 0.00 0.00 53 1015.1
20260509001600 17 157 3.2 3.2 0.00 0.00 0.00 48 1015.0
20260509001056 17 152 3.2 3.2 0.00 0.00 0.00 52 1014.9
20260509000555 17 148 3.2 3.2 0.00 0.00 0.00 46 1015.2
20260509000050 18 150 3.2 3.2 0.00 0.00 0.00 45 1015.0
20260508235548 18 152 3.2 3.2 0.00 0.00 0.00 43 1015.0
20260508235044 18 137 1.6 3.2 0.00 0.00 0.00 41 1015.0
20260508234542 18 139 3.2 3.2 0.00 0.00 0.00 43 1014.8
20260508234038 19 130 3.2 3.2 0.00 0.00 0.00 41 1014.4
20260508233538 19 155 3.2 3.2 0.00 0.00 0.00 42 1014.7
20260508233035 19 154 3.2 3.2 0.00 0.00 0.00 40 1014.6
20260508232531 20 123 1.6 3.2 0.00 0.00 0.00 38 1014.6
20260508232029 20 155 3.2 3.2 0.00 0.00 0.00 41 1014.5
20260508231526 20 148 3.2 4.8 0.00 0.00 0.00 38 1014.3
20260508231023 20 146 1.6 3.2 0.00 0.00 0.00 38 1014.3
20260508230520 20 151 3.2 4.8 0.00 0.00 0.00 38 1014.5
20260508230017 20 140 1.6 4.8 0.00 0.00 0.00 35 1014.2
20260508225514 20 165 1.6 3.2 0.00 0.00 0.00 35 1014.5
20260508225010 21 133 4.8 4.8 0.00 0.00 0.00 36 1014.4
20260508224508 21 118 1.6 3.2 0.00 0.00 0.00 33 1014.3
20260508224005 21 155 1.6 3.2 0.00 0.00 0.00 33 1014.2
20260508223503 21 161 3.2 3.2 0.00 0.00 0.00 33 1014.3
20260508223000 21 82 3.2 4.8 0.00 0.00 0.00 32 1014.5
20260508222458 21 104 1.6 3.2 0.00 0.00 0.00 31 1014.3
20260508221954 22 170 1.6 3.2 0.00 0.00 0.00 29 1014.4
20260508221450 22 177 1.6 3.2 0.00 0.00 0.00 31 1014.5
20260508220946 22 128 4.8 4.8 0.00 0.00 0.00 30 1014.5
20260508220443 22 143 3.2 3.2 0.00 0.00 0.00 32 1014.6
20260508215939 22 143 1.6 3.2 0.00 0.00 0.00 30 1014.7
20260508215436 22 130 3.2 3.2 0.00 0.00 0.00 31 1014.6
20260508214932 22 155 3.2 4.8 0.00 0.00 0.00 33 1014.7
20260508214431 21 156 1.6 3.2 0.00 0.00 0.00 30 1014.7
20260508213926 21 93 1.6 3.2 0.00 0.00 0.00 33 1014.8
20260508213424 21 180 3.2 3.2 0.00 0.00 0.00 30 1014.9
20260508212919 21 132 1.6 3.2 0.00 0.00 0.00 31 1014.8
20260508212416 21 40 1.6 3.2 0.00 0.00 0.00 31 1014.6
20260508211912 22 133 1.6 3.2 0.00 0.00 0.00 32 1014.7
20260508211408 22 136 3.2 4.8 0.00 0.00 0.00 32 1014.7
20260508210906 22 118 3.2 4.8 0.00 0.00 0.00 31 1014.7
20260508210402 22 179 3.2 3.2 0.00 0.00 0.00 30 1014.7
20260508205858 22 158 4.8 6.4 0.00 0.00 0.00 29 1014.6
20260508205355 22 133 4.8 4.8 0.00 0.00 0.00 31 1014.8
20260508204851 22 117 1.6 3.2 0.00 0.00 0.00 30 1014.8
20260508204348 21 184 3.2 6.4 0.00 0.00 0.00 30 1014.7
20260508203844 21 155 1.6 3.2 0.00 0.00 0.00 31 1014.9
20260508203340 22 265 0.0 4.8 0.00 0.00 0.00 31 1014.9
20260508202836 22 78 0.0 3.2 0.00 0.00 0.00 30 1014.8
20260508202334 22 174 3.2 4.8 0.00 0.00 0.00 33 1015.0
20260508201831 22 160 3.2 4.8 0.00 0.00 0.00 31 1014.9
20260508201328 22 165 0.0 4.8 0.00 0.00 0.00 33 1015.1
20260508200824 22 80 0.0 4.8 0.00 0.00 0.00 32 1014.9
20260508200321 22 251 3.2 4.8 0.00 0.00 0.00 29 1015.2
20260508195817 22 182 1.6 3.2 0.00 0.00 0.00 29 1015.0
20260508195314 22 177 1.6 3.2 0.00 0.00 0.00 30 1015.2
20260508194810 22 118 0.0 4.8 0.00 0.00 0.00 32 1015.2
20260508194307 22 160 1.6 3.2 0.00 0.00 0.00 31 1015.3
20260508193804 21 121 3.2 4.8 0.00 0.00 0.00 30 1015.5
20260508193301 22 79 0.0 4.8 0.00 0.00 0.00 30 1015.5
20260508192757 22 202 0.0 3.2 0.00 0.00 0.00 31 1015.6
20260508192254 22 210 1.6 6.4 0.00 0.00 0.00 33 1015.7
20260508191751 22 135 3.2 8.0 0.00 0.00 0.00 31 1015.8
20260508191249 21 74 0.0 3.2 0.00 0.00 0.00 30 1015.5
20260508190746 22 133 6.4 8.0 0.00 0.00 0.00 30 1015.9
20260508190242 22 205 8.0 8.0 0.00 0.00 0.00 29 1016.1
20260508185738 22 254 0.0 3.2 0.00 0.00 0.00 30 1016.3
20260508185236 21 176 1.6 1.6 0.00 0.00 0.00 33 1016.5
20260508184733 21 155 4.8 4.8 0.00 0.00 0.00 32 1016.1
20260508184230 21 180 0.0 3.2 0.00 0.00 0.00 30 1016.4
20260508183727 21 81 3.2 8.0 0.00 0.00 0.00 33 1016.5
20260508183223 21 135 3.2 4.8 0.00 0.00 0.00 31 1016.5
20260508182719 21 157 4.8 6.4 0.00 0.00 0.00 30 1016.4
20260508182216 21 128 1.6 6.4 0.00 0.00 0.00 33 1016.7
20260508181712 21 167 3.2 4.8 0.00 0.00 0.00 33 1016.9
20260508181209 20 104 3.2 8.0 0.00 0.00 0.00 33 1016.8
20260508180706 20 259 3.2 6.4 0.00 0.00 0.00 32 1016.6
20260508180203 20 144 4.8 6.4 0.00 0.00 0.00 35 1016.8
20260508175659 20 218 1.6 3.2 0.00 0.00 0.00 32 1016.8
20260508175156 20 352 0.0 3.2 0.00 0.00 0.00 32 1016.8
20260508174654 20 196 3.2 8.0 0.00 0.00 0.00 32 1016.8
20260508174150 20 148 1.6 4.8 0.00 0.00 0.00 34 1016.8
20260508173647 20 168 4.8 6.4 0.00 0.00 0.00 36 1016.8
20260508173143 20 119 1.6 4.8 0.00 0.00 0.00 34 1017.0
20260508172640 20 159 3.2 8.0 0.00 0.00 0.00 32 1017.0
20260508172137 20 151 3.2 4.8 0.00 0.00 0.00 35 1017.2
20260508171633 20 157 4.8 4.8 0.00 0.00 0.00 35 1017.1
20260508171130 20 123 3.2 4.8 0.00 0.00 0.00 37 1017.2
20260508170627 19 217 1.6 4.8 0.00 0.00 0.00 37 1017.4
20260508170125 19 174 1.6 8.0 0.00 0.00 0.00 31 1017.4
20260508165622 19 187 4.8 8.0 0.00 0.00 0.00 36 1017.5
20260508165118 18 153 4.8 8.0 0.00 0.00 0.00 38 1017.4
20260508164614 18 231 4.8 4.8 0.00 0.00 0.00 38 1017.7
20260508164112 18 141 3.2 4.8 0.00 0.00 0.00 38 1017.9
20260508163609 18 127 3.2 4.8 0.00 0.00 0.00 42 1017.8
20260508163106 18 43 3.2 4.8 0.00 0.00 0.00 40 1017.9
20260508162602 18 121 4.8 4.8 0.00 0.00 0.00 41 1017.8
20260508162100 18 154 1.6 3.2 0.00 0.00 0.00 39 1018.0
20260508161556 18 88 0.0 6.4 0.00 0.00 0.00 44 1018.3
20260508161054 18 235 3.2 4.8 0.00 0.00 0.00 41 1018.1
20260508160552 18 92 3.2 4.8 0.00 0.00 0.00 43 1018.1
20260508160049 17 165 3.2 4.8 0.00 0.00 0.00 41 1018.2
20260508155546 17 125 1.6 4.8 0.00 0.00 0.00 43 1018.2
20260508155043 17 140 1.6 6.4 0.00 0.00 0.00 44 1018.7
20260508154540 17 149 3.2 6.4 0.00 0.00 0.00 45 1018.5
20260508154037 17 136 4.8 4.8 0.00 0.00 0.00 43 1018.4
20260508153533 17 138 1.6 6.4 0.00 0.00 0.00 44 1018.5
20260508153030 17 243 3.2 6.4 0.00 0.00 0.00 40 1018.9
20260508152527 17 146 3.2 4.8 0.00 0.00 0.00 40 1018.7
20260508152022 16 146 4.8 6.4 0.00 0.00 0.00 42 1018.7
20260508151520 16 254 0.0 4.8 0.00 0.00 0.00 38 1018.8
20260508151016 16 146 3.2 4.8 0.00 0.00 0.00 39 1019.0
20260508150514 16 159 3.2 3.2 0.00 0.00 0.00 39 1018.9
20260508150009 16 143 0.0 1.6 0.00 0.00 0.00 35 1019.0
20260508145506 16 169 3.2 4.8 0.00 0.00 0.00 37 1019.1
20260508145002 16 139 4.8 4.8 0.00 0.00 0.00 37 1018.9
20260508144500 16 177 4.8 6.4 0.00 0.00 0.00 35 1019.1
20260508143957 16 187 3.2 4.8 0.00 0.00 0.00 38 1019.0
20260508143455 16 127 0.0 4.8 0.00 0.00 0.00 43 1019.0
20260508142951 16 169 3.2 4.8 0.00 0.00 0.00 43 1018.9
20260508142448 17 138 3.2 4.8 0.00 0.00 0.00 44 1018.9
20260508141944 17 143 3.2 4.8 0.00 0.00 0.00 46 1019.0
20260508141441 16 164 1.6 3.2 0.00 0.00 0.00 48 1019.0
20260508140939 16 145 4.8 4.8 0.00 0.00 0.00 47 1019.1
20260508140436 16 158 1.6 4.8 0.00 0.00 0.00 51 1018.9
20260508135931 15 196 1.6 3.2 0.00 0.00 0.00 57 1018.8
20260508135428 13 185 1.6 3.2 0.00 0.00 0.00 59 1018.9
20260508134925 13 142 3.2 4.8 0.00 0.00 0.00 65 1019.1
20260508134421 13 176 0.0 3.2 0.00 0.00 0.00 65 1019.0
20260508133918 13 184 3.2 4.8 0.00 0.00 0.00 73 1019.2
20260508133416 12 137 3.2 4.8 0.00 0.00 0.00 73 1019.1
20260508132912 12 128 3.2 4.8 0.00 0.00 0.00 81 1019.2
20260508132410 12 142 3.2 3.2 0.00 0.00 0.00 86 1019.0
20260508131907 11 140 3.2 3.2 0.00 0.00 0.00 91 1019.2
20260508131402 11 148 3.2 4.8 0.00 0.00 0.00 99 1019.0
20260508130859 11 150 3.2 3.2 0.00 0.00 0.00 99 1019.0
20260508130356 11 163 1.6 3.2 0.00 0.00 0.00 99 1018.9
20260508125852 10 152 3.2 3.2 0.00 0.00 0.00 99 1019.2
20260508125348 10 140 3.2 3.2 0.00 0.00 0.00 99 1019.1
20260508124846 10 150 3.2 3.2 0.00 0.00 0.00 99 1019.1
20260508124343 10 159 1.6 3.2 0.00 0.00 0.00 99 1019.1
20260508123841 10 148 3.2 3.2 0.00 0.00 0.00 99 1019.1
20260508123340 10 158 3.2 4.8 0.00 0.00 0.00 99 1018.8
20260508122836 10 151 3.2 4.8 0.00 0.00 0.00 99 1018.9
20260508122332 9 153 3.2 3.2 0.00 0.00 0.00 99 1019.1
20260508121830 9 160 3.2 3.2 0.00 0.00 0.00 99 1018.9
20260508121328 8 162 3.2 3.2 0.00 0.00 0.00 99 1018.8
20260508120826 8 161 1.6 3.2 0.00 0.00 0.00 99 1018.6
20260508120323 7 157 3.2 3.2 0.00 0.00 0.00 99 1018.6
20260508115820 7 157 3.2 3.2 0.00 0.00 0.00 99 1018.6
20260508115318 7 151 3.2 3.2 0.00 0.00 0.00 99 1018.5
20260508114814 7 168 3.2 3.2 0.00 0.00 0.00 99 1018.4
20260508114311 6 172 3.2 4.8 0.00 0.00 0.00 99 1018.2
20260508113808 6 149 3.2 3.2 0.00 0.00 0.00 99 1018.3
20260508113306 5 156 3.2 3.2 0.00 0.00 0.00 99 1018.2
20260508112802 5 152 3.2 3.2 0.00 0.00 0.00 99 1018.3
20260508112259 5 155 3.2 3.2 0.00 0.00 0.00 99 1018.2
20260508111755 5 157 3.2 3.2 0.00 0.00 0.00 99 1018.0
20260508111254 5 144 3.2 3.2 0.00 0.00 0.00 99 1018.0
20260508110750 5 140 3.2 3.2 0.00 0.00 0.00 99 1017.6
20260508110248 5 154 3.2 3.2 0.00 0.00 0.00 99 1017.7
20260508105742 5 145 3.2 4.8 0.00 0.00 0.00 99 1017.7
20260508105238 5 158 3.2 3.2 0.00 0.00 0.00 99 1017.6
20260508104736 5 141 3.2 3.2 0.00 0.00 0.00 99 1017.5
20260508104233 5 150 3.2 4.8 0.00 0.00 0.00 99 1017.5
20260508103730 5 154 3.2 4.8 0.00 0.00 0.00 99 1017.3
20260508103227 5 148 3.2 3.2 0.00 0.00 0.00 99 1017.4
20260508102724 5 156 3.2 3.2 0.00 0.00 0.00 99 1017.2
20260508102222 5 151 3.2 3.2 0.00 0.00 0.00 99 1017.3
20260508101719 5 141 3.2 3.2 0.00 0.00 0.00 99 1017.3
20260508101216 5 141 3.2 4.8 0.00 0.00 0.00 99 1017.0
20260508100714 6 148 3.2 3.2 0.00 0.00 0.00 99 1017.1
20260508100212 6 148 3.2 3.2 0.00 0.00 0.00 99 1017.0
20260508095708 6 148 3.2 3.2 0.00 0.00 0.00 99 1017.0
20260508095206 6 131 3.2 3.2 0.00 0.00 0.00 99 1016.8
20260508094702 6 151 3.2 4.8 0.00 0.00 0.00 99 1016.9
20260508094159 6 158 3.2 3.2 0.00 0.00 0.00 99 1016.9